Location: Rodewisch
(50.5309°N, 12.4049°E)
Time: 05:23:04
(UTC+02:00)

ISS - Visible Passes

Search period start: 31 March 2023 00:00
Search period end: 10 April 2023 00:00
Orbit: 414 x 423 km, 51.6° (Epoch: 31 March)

Date Brightness Start Highest point End Pass type
(mag) Time Alt. Az. Time Alt. Az. Time Alt. Az.
31 Mar -2.5 20:33:12 10° W 20:36:17 34° SSW 20:39:19 10° SE visible
01 Apr -1.0 21:23:29 10° WSW 21:24:40 11° SW 21:25:50 10° SSW visible
02 Apr -1.3 20:34:38 10° W 20:36:55 17° SW 20:39:10 10° S visible
